Location: Sternwarte ZA, Rosenfeld-Brittheim
(48.2889°N, 8.6789°E)
Time: 04:41:08
(UTC+02:00)

ISS - Pass Details

Date: 25 May 2018
Orbit: 402 x 407 km, 51.6° (Epoch: 26 May)

Event Time Altitude Azimuth Distance (km) Brightness Sun altitude
Rises 00:27:22 0° 282° (WNW) 2,320 0.4 -19.7°
Reaches altitude 10° 00:29:30 10° 289° (WNW) 1,460 -0.6 -19.8°
Maximum altitude 00:32:40 45° 4° (N) 565 -2.7 -19.9°
Enters shadow 00:35:42 11° 78° (ENE) 1,415 -1.1 -20.0°
